Regional Weather Roundup
Issued by NWS State College, PA

Home | Current Version | Previous Version | Text Only | Print | Product List | Glossary Off
Versions: 1 2 3 4 5 6 7 8 9 10 11 12 13 14 15 16 17 18 19 20 21 22 23 24 25 26 27 28 29 30 31 32 33 34 35 36 37 38 39 40 41 42 43 44 45 46 47 48 49 50

000
ASUS41 KCTP 221710
RWRCTP

REGIONAL WEATHER ROUNDUP
NATIONAL WEATHER SERVICE STATE COLLEGE PA
1200 PM EST WED NOV 22 2017

Note: "fair" indicates few or no clouds below 12,000 feet with no
significant weather and/or obstructions to visibility.

* = STATION THAT DOES NOT REPORT PRECIPITATION /E.G. RAIN...SNOW...ETC/
    THUNDER OR FOG.

PAZ002>004-007>009-013>016-020>023-029>032-221800-
WESTERN PENNSYLVANIA

CITY           SKY/WX    TMP DP  RH WIND       PRES   REMARKS
ERIE           CLOUDY    34  24  67 NW9       30.19F
MEADVILLE      CLOUDY    31  25  78 NW9       30.16F
FRANKLIN*      MIX PCPN  30  27  86 W7G16     30.15S
NEW CASTLE     CLOUDY    33  26  75 NW13G18   30.20S
BEAVER COUNTY  CLOUDY   N/A N/A N/A NW7       30.19R
BUTLER*        CLOUDY    33  26  75 VRB6      30.18S
PITTSBURGH INT CLOUDY    34  28  79 NW10      30.19R
PITTSBURGH     CLOUDY    35  25  66 NW10G24   30.16S
INDIANA*       CLOUDY    36  30  80 NW14G20   30.16S
LATROBE        PTSUNNY   36  28  75 NW16      30.16S
WASHINGTON CO* CLOUDY    35  27  72 N10       30.21F
$$

PAZ004>006-010>012-017>019-024>028-033>037-041-042-045-046-049>053-221800-
CENTRAL PENNSYLVANIA

CITY           SKY/WX    TMP DP  RH WIND       PRES   REMARKS
BRADFORD       MIX PCPN  29  25  85 NW13G22   30.06S
DUBOIS         CLOUDY    33  26  75 NW14G20   30.08R
CLEARFIELD     CLOUDY    37  29  72 NW13      30.08S
JOHNSTOWN      FLURRIES  31  28  89 NW14      30.06S
ALTOONA        CLOUDY    39  30  70 NW10G20   30.07S
STATE COLLEGE  CLOUDY    39  28  65 NW9G17    30.05F
WILLIAMSPORT   CLOUDY    45  31  58 NW15G23   30.03S
SELINSGROVE    CLOUDY    45  34  65 N10       30.03S
FT INDIANTOWN  PTSUNNY   50  32  50 NW16G30   29.96F
CAPITAL CITY   MOSUNNY   49  28  44 NW17G28   30.01S
HARRISBURG     PTSUNNY   51  31  46 NW22G33   29.99F
YORK           MOSUNNY   49  30  48 W18G29    30.00S
$$

PAZ038>040-043-044-047-048-054-055-060>062-067>071-221800-
EASTERN PENNSYLVANIA

CITY           SKY/WX    TMP DP  RH WIND       PRES   REMARKS
SCRANTON       CLOUDY    39  31  72 N16G25    29.99F
MOUNT POCONO   CLOUDY    36  31  82 NW20G32   29.91S
ALLENTOWN      PTSUNNY   49  36  61 N14       29.95R
QUAKERTOWN*    CLOUDY    50  37  62 N10G21    29.93S
READING        MOSUNNY   50  36  58 NW17      29.95S
LANCASTER      MOSUNNY   52  35  52 NW20G28   29.96F
COATESVILLE    PTSUNNY   54  36  50 NW16G28   29.94F
POTTSTOWN      PTSUNNY   51  35  54 NW13      29.94S
BLUE BELL      MOSUNNY   54  36  50 NW12G21   29.92F
DOYLESTOWN     PTSUNNY   51  39  63 NW13G20   29.90F
WILLOW GROVE   NOT AVBL
NORTH PHILA    MOSUNNY   57  42  57 N13G22    29.92F
PHILADELPHIA   MOSUNNY   57  37  47 NW17G30   29.91F
$$




USA.gov is the U.S. government's official web portal to all federal, state and local government web resources and services.